CAPE
0 0 0 0 0 0 0 0 0 0 0 0 0 0 0 0 0 0 0 0 0 0 0 0 0 0 0 0 0 0 0 0 0 0 25 219 262 219 71 1 2 2 2 3
0 0 0 0 0 0 0 0 0 0 0 0 0 0 0 0 0 0 0 0 0 0 0 0 0 0 0 0 0 0 0 0 0 0 4 242 371 206 44 4 2 2 2 2
0 0 0 0 0 0 0 0 0 0 0 0 0 0 0 0 0 0 0 0 0 0 0 0 0 0 0 0 0 0 0 0 0 0 0 144 345 239 71 12 2 2 2 2
0 0 0 0 0 0 0 0 0 0 0 0 0 0 0 0 0 0 0 0 0 0 0 0 0 0 0 0 0 0 0 0 0 0 0 102 229 234 46 3 2 1 2 3
0 0 0 0 0 0 0 0 0 0 0 0 0 0 0 0 0 0 0 0 0 0 0 0 0 0 0 0 0 0 0 0 0 0 0 149 174 167 58 1 1 1 1 1
0 0 0 0 0 0 0 0 0 0 0 0 0 0 0 0 0 0 0 0 0 0 0 0 0 0 0 0 0 0 0 0 0 0 0 194 204 142 37 6 2 2 2 1
0 0 0 0 0 0 0 0 0 0 0 0 0 0 0 0 0 0 0 0 0 0 0 0 0 1 1 0 0 0 0 0 0 0 0 187 141 125 45 8 2 3 3 2
0 0 0 0 0 0 0 0 0 0 0 0 0 0 0 0 0 0 0 0 0 0 0 0 0 0 0 1 0 0 0 0 0 0 0 111 170 95 48 17 0 1 0 2
0 0 0 0 0 0 0 0 0 0 0 0 0 0 0 0 0 0 0 0 0 0 0 0 0 1 1 1 1 1 0 0 0 34 40 100 175 113 26 0 0 0 0 2
0 0 0 0 0 0 0 0 0 0 0 0 0 0 0 0 0 0 0 0 0 0 0 0 0 0 0 1 2 3 4 0 0 0 75 147 173 96 47 6 0 0 1 2
0 0 0 0 0 0 0 0 0 0 0 0 0 0 0 0 0 0 0 0 0 0 0 0 0 0 0 0 1 3 3 2 1 1 0 0 0 6 30 11 4 3 0 0
0 0 0 0 0 0 0 0 0 0 0 0 0 0 0 0 0 0 0 0 0 0 0 0 0 0 0 1 1 2 4 2 4 3 1 1 0 0 0 0 0 0 0 0
0 0 0 0 0 0 0 0 0 0 0 0 0 0 0 0 0 0 0 0 0 0 0 0 0 0 0 0 0 1 3 3 3 3 3 2 1 0 0 0 0 0 0 0
0 0 0 0 0 0 0 0 0 0 0 0 0 0 0 0 0 0 0 0 0 0 0 0 0 0 0 0 1 0 2 2 4 4 4 2 2 1 2 2 1 0 0 0
0 0 0 0 0 0 0 0 0 0 0 0 0 0 0 0 0 0 0 0 0 0 0 0 0 0 0 0 0 0 1 0 3 0 0 2 1 1 1 1 1 2 1 0
0 0 0 0 0 0 0 0 0 0 0 0 0 0 0 0 0 0 0 0 0 0 0 0 0 0 0 0 0 0 0 1 3 1 1 1 0 0 0 1 1 1 1 2
0 0 0 0 0 0 0 0 0 0 0 0 0 0 0 0 0 0 0 0 0 0 0 0 0 0 0 0 0 0 0 1 0 1 0 0 0 0 0 0 0 1 1 1
0 0 0 0 0 0 0 0 0 0 0 0 0 0 0 0 0 0 0 0 0 0 0 0 0 0 0 0 0 0 0 0 0 0 0 0 0 0 0 0 0 0 0 2
0 0 0 0 0 0 0 0 0 0 0 0 0 0 0 0 0 0 0 0 0 0 0 0 0 0 0 0 0 0 0 0 0 0 0 0 0 0 0 0 0 0 0 0
0 0 0 0 0 0 0 0 0 0 0 0 0 0 0 0 0 0 0 0 0 0 0 0 0 0 0 0 0 0 0 0 0 0 0 0 0 0 0 0 0 0 0 0
0 0 0 0 0 0 0 0 0 0 0 0 0 0 0 0 0 0 0 0 0 0 0 0 0 0 0 0 0 0 0 0 0 0 0 0 0 0 0 0 0 0 0 0
0 0 0 0 0 0 0 0 0 0 0 0 0 0 0 0 0 0 0 0 0 0 0 0 0 0 0 0 0 0 0 0 0 0 0 0 0 0 0 0 0 0 0 0
0 0 0 0 0 0 0 0 0 0 0 0 0 0 0 0 0 0 0 0 0 0 0 0 0 0 0 0 0 0 0 0 0 0 0 0 0 0 0 0 0 0 0 0
0 0 0 0 0 0 0 0 0 0 0 0 0 0 0 0 0 0 0 0 0 0 0 0 0 0 0 0 0 0 0 0 0 0 0 0 0 0 0 0 0 0 0 0
0 0 0 0 0 0 0 0 0 0 0 0 0 0 0 0 0 0 0 0 0 0 0 0 0 0 0 0 0 0 0 0 0 0 0 0 0 0 0 0 0 0 0 0
0 0 0 0 0 0 0 0 0 0 0 0 0 0 0 0 0 0 0 0 0 0 0 0 0 0 0 0 0 0 0 0 0 0 0 0 0 0 0 0 0 0 0 0
CIN
0 0 0 0 0 0 0 0 0 0 0 0 0 0 0 0 0 0 0 0 0 0 0 0 0 0 0 0 0 0 0 0 0 0 -38 -1 -1 -11 -27 0 0 0 0 0
0 0 0 0 0 0 0 0 0 0 0 0 0 0 0 0 0 0 0 0 0 0 0 0 0 0 0 0 0 0 0 0 0 0 -8 -1 0 -23 -47 -41 0 0 0 0
0 0 0 0 0 0 0 -1 0 0 0 0 0 0 0 0 0 0 0 0 0 0 0 0 0 0 0 0 0 0 0 0 0 0 0 -8 -2 -7 -17 -94 0 0 0 0
0 0 0 0 0 0 0 0 0 0 0 0 0 0 0 0 0 0 0 0 0 0 0 0 0 0 0 0 0 0 0 0 0 0 0 -7 0 0 -16 -20 0 0 0 0
0 0 0 0 0 0 0 0 0 0 0 0 0 0 0 0 0 0 0 0 0 0 0 0 0 0 0 0 0 0 0 0 0 0 0 -8 -2 -6 -20 -2 0 0 0 0
0 0 0 0 0 0 0 0 0 0 0 0 0 0 0 0 0 0 0 0 0 0 0 0 0 0 0 0 0 0 0 0 0 0 0 -7 -4 -4 -20 -84 0 0 0 0
0 0 0 0 0 0 0 0 0 0 0 0 0 0 0 0 0 0 0 0 0 0 0 0 0 -1 0 0 0 0 0 0 0 0 0 -15 -27 -6 -17 -74 0 0 0 0
0 0 0 0 0 0 0 0 0 0 0 0 0 0 0 0 0 0 0 0 0 0 0 0 0 0 0 0 0 0 0 0 0 -6 0 -32 -31 -43 -44 -42 0 -36 0 0
0 0 0 0 0 0 0 0 0 0 0 0 0 0 0 0 0 0 0 0 0 0 0 0 0 0 0 0 0 0 0 0 0 -93 -90 -50 -30 -42 -69 0 0 0 0 -33
0 0 0 0 0 0 0 0 0 0 0 0 0 0 0 0 0 0 0 0 0 0 0 0 0 0 0 0 0 0 0 0 0 0 -124 -59 -24 -52 -74 -100 0 0 0 0
0 0 0 0 0 0 0 0 0 0 0 0 0 0 0 0 0 0 0 0 0 0 0 0 0 0 0 0 0 0 0 0 0 0 0 0 0 -45 -91 -68 -76 -96 0 0
0 0 0 0 0 0 0 0 0 0 0 0 0 0 0 0 0 0 0 0 0 0 0 0 0 0 0 0 0 0 0 0 0 0 0 0 0 0 0 0 0 0 -7 0
0 0 0 0 0 0 0 0 0 0 0 0 0 0 0 0 0 0 0 0 0 0 0 0 0 0 0 0 0 0 0 0 0 0 0 0 0 0 0 0 0 0 0 0
0 0 0 0 0 0 0 0 0 0 0 0 0 0 0 0 0 0 0 0 0 0 0 0 0 0 0 0 0 0 0 0 0 0 0 0 0 0 0 0 0 0 0 0
0 0 0 0 0 0 0 0 0 0 0 0 0 0 0 0 0 0 0 0 0 0 0 0 0 0 0 0 0 0 0 0 0 0 0 0 0 0 0 0 0 0 0 0
0 0 0 0 0 0 0 0 0 0 0 0 0 0 0 0 0 0 0 0 0 0 0 0 0 0 0 0 0 0 0 0 0 0 0 0 0 0 0 0 0 0 0 0
0 0 0 0 0 0 0 0 0 0 0 0 0 0 0 0 0 0 0 0 0 0 0 0 0 0 0 0 0 0 0 0 0 0 0 0 0 0 0 0 0 0 0 0
0 0 0 0 0 0 0 0 0 0 0 0 0 0 0 0 0 0 0 0 0 0 0 0 0 0 0 0 0 0 0 0 0 0 0 0 0 0 0 0 0 0 0 0
0 0 0 0 0 0 0 0 0 0 0 0 0 0 0 0 0 0 0 0 0 0 0 0 0 0 0 0 0 0 0 0 0 0 0 0 0 0 0 0 0 0 0 0
0 0 0 0 0 0 0 0 0 0 0 0 0 0 0 0 0 0 0 0 0 0 0 0 0 0 0 0 0 0 0 0 0 0 0 0 0 0 0 0 0 0 0 0
0 0 0 0 0 0 0 0 0 0 0 0 0 0 0 0 0 0 0 0 0 0 0 0 0 0 0 0 0 0 0 0 0 0 0 0 0 0 0 0 0 0 0 0
0 0 0 0 0 0 0 0 0 0 0 0 0 0 0 0 0 0 0 0 0 0 0 0 0 0 0 0 0 0 0 0 0 0 0 0 0 0 0 0 0 0 0 0
0 0 0 0 0 0 0 0 0 0 0 0 0 0 0 0 0 0 0 0 0 0 0 0 0 0 0 0 0 0 0 0 0 0 0 0 0 0 0 0 0 0 0 0
0 0 0 0 0 0 0 0 0 0 0 0 0 0 0 0 0 0 0 0 0 0 0 0 0 0 0 0 0 0 0 0 0 0 0 0 0 0 0 0 0 0 0 0
0 0 0 0 0 0 0 0 0 0 0 0 0 0 0 0 0 0 0 0 0 0 0 0 0 0 0 0 0 0 0 0 0 0 0 0 0 0 0 0 0 0 0 0
0 0 0 0 0 0 0 0 0 0 0 0 0 0 0 0 0 0 0 0 0 0 0 0 0 0 0 0 0 0 0 0 0 0 0 0 0 0 0 0 0 0 0 0
Wind_Speed
31 33 37 34 28 33 39 43 48 51 44 46 42 46 57 53 48 45 45 45 47 51 54 54 56 57 60 59 58 60 59 55 51 49 49 48 47 43 42 40 38 39 37 34
32 34 30 29 28 32 33 40 48 45 37 34 48 55 45 53 42 38 36 36 39 44 46 49 51 54 58 60 59 58 59 57 52 48 46 46 44 42 41 39 38 38 37 35
30 32 31 31 33 34 31 37 41 38 46 38 40 42 48 38 29 31 33 35 37 38 44 45 47 51 54 56 57 58 58 57 54 50 47 44 40 38 41 40 40 40 37 35
29 27 29 34 31 29 31 29 30 29 37 42 34 49 47 35 33 35 36 38 42 43 44 45 47 49 54 58 56 56 57 55 54 51 48 47 46 44 41 40 39 38 37 37
29 30 32 33 25 23 25 32 26 21 20 38 37 28 42 41 33 37 39 43 44 45 46 46 44 45 47 52 54 55 56 54 52 49 48 47 44 41 38 37 37 37 37 35
23 23 27 23 22 22 26 33 37 27 22 26 30 27 34 26 27 37 41 43 45 48 47 45 42 40 42 42 45 50 53 55 52 50 47 47 44 39 37 35 36 36 37 35
28 27 21 19 26 24 26 34 27 22 23 27 32 35 10 21 29 39 48 51 51 48 45 43 40 37 36 39 41 44 48 54 51 48 46 46 42 38 36 35 32 31 33 34
29 30 24 21 22 22 27 21 20 25 30 42 36 19 21 19 30 40 40 43 47 43 41 38 36 34 32 35 38 40 44 49 49 46 44 43 42 38 37 34 37 26 34 32
26 23 20 24 19 17 22 18 20 21 25 30 23 15 18 26 43 47 44 47 43 39 36 31 33 30 28 29 33 35 38 41 42 43 42 39 39 37 36 35 33 32 32 28
22 27 23 23 25 17 12 26 22 22 25 29 24 9 15 38 43 49 49 44 39 35 29 30 29 26 24 22 26 27 31 35 36 36 36 36 35 34 31 29 29 30 29 26
20 21 22 27 24 22 19 25 18 22 19 22 28 26 24 37 44 43 38 27 29 25 25 20 24 22 19 16 18 20 23 26 30 32 31 31 30 29 29 27 26 25 27 26
17 21 24 20 19 15 13 21 22 25 25 11 27 16 18 26 30 34 32 15 20 12 8 18 10 19 15 13 12 14 16 20 23 25 27 25 25 24 24 26 25 24 27 26
17 18 29 33 21 21 20 25 27 18 6 17 8 5 18 23 30 28 23 13 21 12 12 11 13 13 12 10 10 10 12 13 17 19 21 22 21 21 21 22 24 26 26 26
17 16 17 17 14 30 38 35 34 27 3 11 16 22 22 18 17 12 8 7 2 10 9 6 16 10 10 10 9 9 7 9 12 15 16 18 18 19 19 19 19 21 23 25
17 17 19 12 14 27 29 32 32 25 12 4 27 23 24 4 8 5 5 5 7 2 2 12 17 14 10 8 7 8 8 4 9 9 10 13 14 15 17 18 19 20 22 24
18 15 22 18 19 34 35 31 33 23 16 13 16 21 17 14 15 1 6 4 4 3 5 10 12 8 2 6 7 7 6 7 4 5 8 11 13 15 18 20 20 21 22 23
17 14 23 28 25 34 34 23 20 22 18 14 4 19 19 21 19 20 1 2 5 5 4 5 1 4 5 5 3 7 6 6 5 5 7 9 12 14 17 20 21 23 24 24
13 14 20 31 30 24 19 22 25 26 24 7 20 17 25 23 17 20 17 7 2 3 2 6 3 3 5 8 7 4 5 5 5 6 8 11 12 14 16 18 21 23 24 25
12 16 22 23 20 30 29 20 19 22 23 20 11 23 23 20 16 16 12 11 4 7 5 3 5 8 6 8 8 9 7 7 7 9 9 11 13 14 15 17 19 21 23 25
23 15 11 19 19 20 21 21 20 20 21 23 21 20 19 15 17 16 12 10 8 4 4 7 4 6 7 8 9 11 12 10 10 10 13 14 14 15 16 17 18 19 20 21
18 17 4 17 24 27 26 21 17 21 21 24 21 20 17 16 14 11 10 12 10 7 7 9 12 11 10 9 9 13 12 13 12 12 13 15 16 17 17 17 18 19 19 19
18 14 19 19 23 28 16 15 17 22 25 25 23 20 18 14 9 9 10 10 9 9 9 11 13 14 14 15 15 14 15 13 14 15 16 18 18 19 19 18 19 19 19 19
20 19 20 14 18 21 15 22 22 26 28 25 23 18 13 9 8 7 10 11 11 12 12 12 14 15 16 17 18 19 18 19 19 19 20 20 20 20 20 20 20 20 20 20
22 21 24 24 23 28 27 30 30 28 28 24 19 13 10 9 5 7 8 10 13 15 16 17 18 19 19 21 22 20 19 20 21 21 21 21 22 22 22 21 21 21 22 22
22 20 25 26 24 27 27 19 26 24 21 19 14 9 8 8 6 6 7 8 11 14 16 18 19 20 22 24 24 25 25 25 25 25 25 24 24 24 24 24 23 23 23 23
22 24 24 29 6 10 20 24 25 26 24 16 12 9 6 6 6 5 6 8 10 12 15 18 20 21 23 25 26 26 26 26 27 27 27 27 27 27 26 26 26 24 24 24
Wind_Direction
332 326 320 319 313 312 315 314 314 314 314 311 310 310 297 284 309 307 302 300 297 290 283 275 268 263 255 249 247 245 245 247 251 251 246 242 242 242 242 240 240 239 237 233
331 323 325 325 323 318 316 316 316 319 320 317 308 301 273 295 315 317 316 314 312 306 295 280 271 263 254 248 245 244 242 243 247 249 246 242 242 240 240 239 240 238 239 235
330 328 331 327 324 322 319 320 321 321 304 313 315 311 309 322 330 329 329 325 322 320 305 294 280 267 255 248 244 242 241 241 243 245 245 241 241 240 239 237 237 238 239 237
339 344 336 331 326 327 326 335 331 326 322 313 325 312 305 322 324 324 328 329 321 315 311 301 288 271 258 250 245 242 240 240 241 242 242 237 237 236 237 235 236 238 238 238
337 338 337 332 331 338 331 334 330 319 310 316 321 324 308 326 325 326 327 315 316 318 308 302 294 278 263 251 245 241 239 238 239 240 240 235 236 236 236 234 236 238 238 239
324 343 340 339 340 340 338 337 316 326 330 327 333 333 285 341 343 332 328 330 326 319 313 304 299 286 264 255 247 241 237 236 235 237 238 232 233 233 231 233 234 236 237 239
344 345 357 352 341 346 353 345 346 345 341 332 336 332 337 350 345 335 319 324 321 320 311 302 301 290 267 254 248 242 236 233 232 233 235 231 230 231 231 232 235 233 236 240
341 343 356 1 346 346 346 357 355 340 337 294 335 351 355 4 350 344 347 342 334 332 311 303 301 292 273 256 248 242 235 231 230 229 233 232 230 231 233 234 234 246 242 246
341 343 353 344 351 357 356 357 352 344 342 337 349 4 6 348 328 340 351 344 342 336 316 304 309 295 278 259 247 240 234 229 228 227 231 231 230 230 233 236 241 245 244 242
342 333 349 353 347 353 357 331 347 351 350 346 346 311 9 309 324 342 350 352 330 322 308 314 312 295 280 263 246 238 233 227 226 227 229 232 231 230 233 236 240 243 243 245
339 340 342 345 346 342 350 332 342 345 356 352 345 354 3 342 343 355 4 14 314 308 309 299 305 300 278 265 246 236 230 225 224 225 226 231 231 230 231 236 239 245 242 245
334 337 332 332 338 345 350 334 335 340 343 359 278 268 22 9 8 8 12 306 308 303 302 306 293 301 280 262 249 237 230 222 224 223 223 229 231 230 232 238 244 245 249 251
340 337 335 335 346 352 345 330 316 253 241 247 339 252 16 11 11 19 26 301 306 305 306 309 314 304 284 265 249 243 233 223 223 223 224 227 233 235 241 247 250 251 253 255
324 322 321 320 310 325 303 273 268 258 285 267 239 265 287 297 23 22 10 44 359 292 305 313 329 314 295 267 254 254 243 231 228 226 227 231 239 244 248 255 256 260 259 259
316 301 313 280 264 256 259 261 262 244 224 234 271 269 283 297 37 10 35 56 76 63 338 317 345 328 314 290 269 256 239 265 232 223 228 237 245 250 254 260 267 272 269 267
312 306 321 326 304 277 289 259 261 236 224 223 236 259 20 40 49 319 309 314 80 296 307 316 318 312 224 299 280 268 259 259 264 239 245 256 260 265 267 269 273 278 278 276
306 312 317 319 323 292 292 299 302 311 335 1 161 0 8 316 38 315 250 310 320 323 330 336 101 287 299 325 285 315 272 270 276 282 281 279 281 280 279 277 277 278 278 281
299 307 312 302 313 318 332 308 304 292 252 170 270 265 325 344 38 335 319 292 148 114 51 342 354 332 318 324 327 325 341 327 297 313 307 300 299 296 293 289 287 284 283 281
289 304 305 309 318 292 296 325 306 304 293 313 195 291 311 343 28 326 295 309 200 147 138 119 336 341 349 352 336 343 348 348 348 327 321 314 316 310 306 305 300 296 289 284
289 298 305 304 316 315 309 321 329 312 293 316 327 330 332 355 347 351 296 306 308 288 307 332 334 338 347 348 347 358 357 349 343 328 329 333 330 323 319 314 311 307 302 295
310 306 285 298 297 283 278 316 333 295 293 311 321 317 330 320 318 355 313 331 310 289 309 330 344 349 345 340 342 358 354 356 335 327 335 335 332 331 326 321 318 314 312 308
307 319 296 294 298 292 322 322 317 309 302 306 312 308 306 314 335 338 308 283 269 292 305 325 337 343 343 345 348 350 349 329 330 336 341 340 338 336 332 328 323 318 313 309
305 297 296 316 312 308 326 296 308 311 304 303 304 310 323 330 315 354 320 312 300 305 313 315 328 337 343 345 349 352 345 340 339 343 344 340 336 332 327 326 322 318 316 310
290 295 293 298 309 290 279 262 280 303 293 301 317 323 319 309 336 323 345 2 0 345 333 333 339 343 343 348 350 346 338 337 342 343 339 336 334 331 330 327 322 316 310 308
296 312 304 293 256 291 272 306 298 312 324 321 337 346 320 302 297 315 332 350 349 343 343 342 343 344 346 349 351 350 349 349 351 348 342 337 334 328 323 322 320 317 316 310
305 311 310 293 226 342 315 308 307 298 302 328 338 344 333 298 284 302 316 333 337 336 336 337 341 339 341 346 349 347 344 344 347 346 342 336 330 327 325 321 318 317 315 311